Tracking 20942 objects as of 12-Jul-2020
HD Live streaming from Space Station
objects crossing your sky now

COSMOS 528

Track COSMOS 528 now!
10-day predictions
COSMOS 528 is classified as:


NORAD ID: 6262
Int'l Code: 1972-087A
Perigee: 1,372.5 km
Apogee: 1,474.7 km
Inclination: 74.0 °
Period: 114.1 minutes
Semi major axis: 7794 km
RCS: 0.7007 m2 (medium)
Launch date: November 1, 1972
Source: Commonwealth of Independent States (former USSR) (CIS)
Launch site: PLESETSK MISSILE AND SPACE COMPLEX (PKMTR)
aabbcc
Your satellite tracking list
Your tracking list is empty




NASA's NSSDC Master Catalog

Two Line Element Set (TLE):
1  6262U 72087A   20193.75943891 -.00000023 +00000-0 -37356-4 0  9996
2  6262 074.0324 201.7885 0065590 337.0065 196.0092 12.61569104196567
Source of the keplerian elements: AFSPC